GW0888 Weather Reports


Display with metric or nautical units.
time (UTC)temp
F
wind
direction
speed
MPH
gust
MPH
rain 1hr
in
rain 24hr
in
rain mn
in
humidity
%
barometer
mb
20260504081512 47 355 0.0 1.0 0.00 0.00 0.00 83 1013.7
20260504044537 53 261 0.0 2.0 0.00 0.00 0.00 75 1015.2
20260504043037 53 296 0.0 2.0 0.00 0.00 0.00 74 1015.2
20260504041531 53 260 0.0 3.0 0.00 0.00 0.00 74 1015.6
20260504040030 53 269 0.0 2.0 0.00 0.00 0.00 73 1015.7
20260504034628 54 350 0.0 2.0 0.00 0.00 0.00 72 1015.7
20260504033025 54 300 0.0 2.0 0.00 0.00 0.00 69 1015.6
20260504031522 54 5 0.0 3.0 0.00 0.00 0.00 63 1015.4
20260504030020 55 323 0.0 3.0 0.00 0.00 0.00 62 1015.7
20260504024526 55 291 0.0 2.0 0.00 0.00 0.00 60 1015.6
20260504023018 55 255 0.0 2.0 0.00 0.00 0.00 58 1015.5
20260504021515 55 276 1.0 3.0 0.00 0.00 0.00 58 1015.3
20260504020014 56 245 1.0 3.0 0.00 0.00 0.00 56 1015.0
20260504014512 56 288 0.0 2.0 0.00 0.00 0.00 56 1014.6
20260504013012 56 212 0.0 2.0 0.00 0.00 0.00 55 1014.6
20260504011505 57 263 1.0 2.0 0.00 0.00 0.00 53 1014.8
20260504010003 58 318 0.0 3.0 0.00 0.00 0.00 51 1014.8
20260504004600 59 269 0.0 2.0 0.00 0.00 0.00 50 1014.9
20260504003057 60 247 1.0 3.0 0.00 0.00 0.00 47 1014.9
20260504001552 61 185 0.0 0.0 0.00 0.00 0.00 43 1014.8
20260504000113 62 185 0.0 2.0 0.00 0.00 0.00 41 1014.8
20260503234543 63 294 0.0 2.0 0.00 0.00 0.00 37 1014.8
20260503233042 64 261 1.0 3.0 0.00 0.00 0.00 36 1014.8
20260503231536 65 232 2.0 8.0 0.00 0.00 0.00 33 1015.1
20260503230035 64 269 3.0 9.0 0.00 0.00 0.00 33 1015.2
20260503224531 65 263 6.0 9.0 0.00 0.00 0.00 31 1015.5
20260503223030 65 260 7.0 12.0 0.00 0.00 0.00 31 1015.5
20260503221522 65 248 4.0 11.0 0.00 0.00 0.00 32 1015.5
20260503220021 66 234 4.0 13.0 0.00 0.00 0.00 30 1015.6
20260503214514 65 273 4.0 13.0 0.00 0.00 0.00 31 1015.5
20260503213014 65 225 5.0 10.0 0.00 0.00 0.00 30 1015.5
20260503211543 65 231 8.0 13.0 0.00 0.00 0.00 31 1015.8
20260503210038 65 263 5.0 12.0 0.00 0.00 0.00 32 1016.0
20260503204534 65 295 3.0 10.0 0.00 0.00 0.00 31 1016.0
20260503203036 65 295 5.0 11.0 0.00 0.00 0.00 32 1016.2
20260503201528 66 211 5.0 11.0 0.00 0.00 0.00 30 1016.6
20260503200026 65 232 5.0 10.0 0.00 0.00 0.00 32 1016.9
20260503194521 64 165 4.0 8.0 0.00 0.00 0.00 31 1017.0
20260503193021 64 259 6.0 11.0 0.00 0.00 0.00 33 1017.4
20260503191520 64 292 3.0 7.0 0.00 0.00 0.00 35 1017.6
20260503190019 65 173 3.0 12.0 0.00 0.00 0.00 33 1018.0
20260503184518 65 292 3.0 17.0 0.00 0.00 0.00 32 1018.3
20260503183013 64 218 2.0 7.0 0.00 0.00 0.00 31 1018.5
20260503181513 64 241 4.0 11.0 0.00 0.00 0.00 32 1018.8
20260503180012 64 275 3.0 8.0 0.00 0.00 0.00 32 1019.1
20260503174507 63 263 4.0 8.0 0.00 0.00 0.00 34 1019.3
20260503173007 63 35 7.0 14.0 0.00 0.00 0.00 35 1019.6
20260503171509 63 238 5.0 14.0 0.00 0.00 0.00 35 1019.7